Find Starlink 31307

NORAD ID: 59089 Int'l Des: 2024-041 Owner: SPXS Country: US Constellation: starlink operational
LEOCIRCULAR

实时位置

正在加载3D地球...

关于 Starlink 31307

正在加载描述...

即将过境

Passes for default location (London). Set your location on the main map for personalized predictions.

高度历史

Loading altitude history...

两行轨道根数

1 59089U 24041R 26121.39153559 .00000509 00000-0 28015-4 0 9998
2 59089 43.0029 12.8990 0000426 352.8840 7.2006 15.27582853122389
Epoch: May 1, 2026 • Age: 10 hours

当前状态

高度 484.1 km
速度 7.63 km/s
星下点 31.61°N, 0.87°W
发射日期 Feb 29, 2024
运行时间 2.1 years
类型 internet

技术详情

分类 Payload
质量 730.00 kg
干质量 700.00 kg
总质量 730.00 kg
长度 0.30 m
直径 4.10 m
跨度 29.00 m
形状 Box + pan
制造商 SPXS
平台类型 Starlink V2M
阶段状态 In Orbit
所有者/国家 SPXS/US

Most Searched